EW3693 Weather Reports


Display with metric or nautical units.
time (UTC)temp
F
wind
direction
speed
MPH
gust
MPH
rain 1hr
in
rain 24hr
in
rain mn
in
humidity
%
barometer
mb
20260509150024 62 0.0 1.0 0.00 0.00 0.00 61 1020.2
20260509145024 59 0.0 1.0 0.00 0.00 0.00 64 1020.3
20260509144024 60 0.0 2.0 0.00 0.00 0.00 61 1020.4
20260509143024 60 0 1.0 6.0 0.00 0.00 0.00 61 1020.6
20260509142044 61 0 1.0 4.0 0.00 0.00 0.00 58 1020.7
20260509141024 62 0.0 3.0 0.00 0.00 0.00 56 1020.8
20260509140024 62 0 2.0 6.0 0.00 0.00 0.00 64 1020.9
20260509135044 60 0 1.0 4.0 0.00 0.00 0.00 61 1020.9
20260509134024 60 0.0 2.0 0.00 0.00 0.00 61 1021.0
20260509133024 61 0.0 1.0 0.00 0.00 0.00 63 1021.0
20260509132024 60 0.0 1.0 0.00 0.00 0.00 59 1021.1
20260509131024 60 0.0 2.0 0.00 0.00 0.00 58 1021.2
20260509130024 60 113 1.0 4.0 0.00 0.00 0.00 58 1021.4
20260509125024 60 135 1.0 4.0 0.00 0.00 0.00 57 1021.4
20260509124024 61 0.0 2.0 0.00 0.00 0.00 57 1021.5
20260509123024 60 0.0 2.0 0.00 0.00 0.00 58 1021.6
20260509122024 60 0.0 1.0 0.00 0.00 0.00 57 1021.7
20260509121024 60 0 1.0 3.0 0.00 0.00 0.00 58 1021.9
20260509120024 60 0.0 2.0 0.00 0.00 0.00 59 1021.8
20260509115024 60 0.0 1.0 0.00 0.00 0.00 58 1021.9
20260509114024 61 0 1.0 2.0 0.00 0.00 0.00 64 1021.9
20260509113024 62 0 1.0 4.0 0.00 0.00 0.00 55 1021.9
20260509112023 65 0 1.0 3.0 0.00 0.00 0.00 50 1022.0
20260509111024 64 0.0 1.0 0.00 0.00 0.00 60 1022.1
20260509110024 63 0 1.0 4.0 0.00 0.00 0.00 52 1022.2
20260509105023 64 0 5.0 9.0 0.00 0.00 0.00 65 1022.2
20260509104024 61 0 2.0 5.0 0.00 0.00 0.00 55 1022.3
20260509103023 64 315 1.0 5.0 0.00 0.00 0.00 59 1022.3
20260509102024 63 0 1.0 4.0 0.00 0.00 0.00 60 1022.3
20260509101023 62 0 1.0 4.0 0.00 0.00 0.00 59 1022.3
20260509100023 62 0 1.0 4.0 0.00 0.00 0.00 58 1022.3
20260509095025 60 135 1.0 5.0 0.00 0.00 0.00 58 1022.3
20260509094046 60 135 2.0 5.0 0.00 0.00 0.00 60 1022.4
20260509093025 60 0 1.0 3.0 0.00 0.00 0.00 64 1022.4
20260509092025 60 68 1.0 2.0 0.00 0.00 0.00 63 1022.4
20260509091026 60 293 1.0 3.0 0.00 0.00 0.00 68 1022.5
20260509090025 57 68 2.0 5.0 0.00 0.00 0.00 65 1022.5
20260509085025 58 68 1.0 3.0 0.00 0.00 0.00 70 1022.5
20260509084026 56 90 1.0 3.0 0.00 0.00 0.00 69 1022.6
20260509083026 55 135 1.0 4.0 0.00 0.00 0.00 68 1022.6
20260509082025 55 135 1.0 3.0 0.00 0.00 0.00 71 1022.6
20260509081026 54 135 1.0 6.0 0.00 0.00 0.00 74 1022.7
20260509080025 54 68 2.0 5.0 0.00 0.00 0.00 74 1022.6
20260509075045 53 90 2.0 5.0 0.00 0.00 0.00 75 1022.7
20260509074025 52 68 1.0 5.0 0.00 0.00 0.00 75 1022.6
20260509073025 52 135 2.0 6.0 0.00 0.00 0.00 76 1022.6
20260509072025 53 68 2.0 6.0 0.00 0.00 0.00 75 1022.8
20260509071025 52 135 2.0 5.0 0.00 0.00 0.00 77 1022.8
20260509070025 50 90 3.0 6.0 0.00 0.00 0.00 80 1022.8
20260509065025 50 68 1.0 4.0 0.00 0.00 0.00 82 1022.8
20260509064045 49 90 3.0 7.0 0.00 0.00 0.00 83 1022.8
20260509063045 48 90 2.0 5.0 0.00 0.00 0.00 83 1022.7
20260509062045 48 68 3.0 7.0 0.00 0.00 0.00 84 1022.8
20260509061025 48 90 3.0 5.0 0.00 0.00 0.00 85 1022.7
20260509060025 47 68 3.0 7.0 0.00 0.00 0.00 86 1022.7
20260509055025 47 68 3.0 8.0 0.00 0.00 0.00 87 1022.8
20260509054025 46 90 3.0 5.0 0.00 0.00 0.00 88 1022.7
20260509053025 45 90 3.0 8.0 0.00 0.00 0.00 90 1022.8
20260509052025 45 90 4.0 8.0 0.00 0.00 0.00 90 1022.7
20260509051025 45 90 3.0 7.0 0.00 0.00 0.00 92 1022.7
20260509050025 44 68 2.0 4.0 0.00 0.00 0.00 93 1022.7
20260509045025 43 68 3.0 5.0 0.00 0.00 0.00 93 1022.7
20260509044105 42 68 2.0 5.0 0.00 0.00 0.00 94 1022.6
20260509043025 41 45 2.0 5.0 0.00 0.00 0.00 93 1022.4
20260509042025 40 68 2.0 6.0 0.00 0.00 0.00 93 1022.5
20260509041025 40 45 2.0 5.0 0.00 0.00 0.00 92 1022.5
20260509040025 39 45 1.0 3.0 0.00 0.00 0.00 92 1022.6
20260509035025 40 45 2.0 5.0 0.00 0.00 0.00 92 1022.6
20260509034025 40 45 2.0 4.0 0.00 0.00 0.00 91 1022.6
20260509033105 40 45 2.0 5.0 0.00 0.00 0.00 91 1022.5
20260509032024 40 45 1.0 4.0 0.00 0.00 0.00 90 1022.5
20260509031025 41 68 1.0 4.0 0.00 0.00 0.00 90 1022.6
20260509030205 42 45 1.0 3.0 0.00 0.00 0.00 90 1022.6
20260509025025 42 68 2.0 4.0 0.00 0.00 0.00 90 1022.6
20260509024025 42 68 3.0 5.0 0.00 0.00 0.00 90 1022.6
20260509023025 42 68 1.0 5.0 0.00 0.00 0.00 89 1022.7
20260509022024 42 68 2.0 5.0 0.00 0.00 0.00 89 1022.7
20260509021025 42 68 1.0 3.0 0.00 0.00 0.00 88 1022.7
20260509020024 42 68 1.0 4.0 0.00 0.00 0.00 88 1022.7
20260509015024 42 68 2.0 5.0 0.00 0.00 0.00 88 1022.7
20260509014025 42 68 2.0 7.0 0.00 0.00 0.00 87 1022.8
20260509013024 42 68 2.0 4.0 0.00 0.00 0.00 88 1022.7
20260509012045 42 68 2.0 4.0 0.00 0.00 0.00 87 1022.6
20260509011024 42 68 1.0 3.0 0.00 0.00 0.00 86 1022.6
20260509010024 42 45 2.0 3.0 0.00 0.00 0.00 85 1022.6
20260509005025 43 68 1.0 3.0 0.00 0.00 0.00 83 1022.7
20260509004025 43 68 1.0 4.0 0.00 0.00 0.00 82 1022.8
20260509003024 44 68 1.0 4.0 0.00 0.00 0.00 81 1022.9
20260509002024 45 90 1.0 5.0 0.00 0.00 0.00 78 1022.9
20260509001024 46 90 2.0 5.0 0.00 0.00 0.00 77 1022.8
20260509000025 46 90 2.0 7.0 0.00 0.00 0.00 77 1022.9
20260508235024 46 90 2.0 7.0 0.00 0.00 0.00 76 1022.9
20260508234024 47 68 2.0 8.0 0.00 0.00 0.00 76 1022.9
20260508233105 47 90 4.0 10.0 0.00 0.00 0.00 75 1023.0
20260508232044 47 90 3.0 9.0 0.00 0.00 0.00 74 1023.0
20260508231024 48 90 3.0 7.0 0.00 0.00 0.00 73 1023.0
20260508230024 48 68 3.0 8.0 0.00 0.00 0.00 72 1023.0
20260508225025 48 90 4.0 9.0 0.00 0.00 0.00 72 1023.0
20260508224024 48 68 3.0 8.0 0.00 0.00 0.00 73 1023.0
20260508223024 47 90 4.0 8.0 0.00 0.00 0.00 73 1023.0
20260508222024 48 0.0 2.0 0.00 0.00 0.00 72 1023.0
20260508221024 48 90 1.0 8.0 0.00 0.00 0.00 71 1023.0
20260508220024 48 68 4.0 9.0 0.00 0.00 0.00 70 1022.9
20260508215024 48 90 5.0 11.0 0.00 0.00 0.00 69 1022.9
20260508214024 48 90 4.0 9.0 0.00 0.00 0.00 69 1022.9
20260508213024 48 68 4.0 8.0 0.00 0.00 0.00 68 1022.8
20260508212024 48 68 4.0 10.0 0.00 0.00 0.00 68 1022.9
20260508211024 49 68 5.0 11.0 0.00 0.00 0.00 68 1022.8
20260508210024 49 68 4.0 8.0 0.00 0.00 0.00 68 1022.7
20260508205024 50 68 5.0 9.0 0.00 0.00 0.00 67 1022.7
20260508204044 50 90 4.0 8.0 0.00 0.00 0.00 66 1022.7
20260508203024 51 90 4.0 9.0 0.00 0.00 0.00 66 1022.7
20260508202024 51 90 4.0 9.0 0.00 0.00 0.00 65 1022.6
20260508201024 51 90 5.0 10.0 0.00 0.00 0.00 67 1022.6
20260508200024 52 90 5.0 11.0 0.00 0.00 0.00 67 1022.5
20260508195024 52 90 5.0 10.0 0.00 0.00 0.00 68 1022.4
20260508194024 52 90 5.0 9.0 0.00 0.00 0.00 68 1022.3
20260508193024 53 90 6.0 12.0 0.00 0.00 0.00 68 1022.1
20260508192024 53 90 6.0 10.0 0.00 0.00 0.00 68 1022.1
20260508191024 54 90 5.0 10.0 0.00 0.00 0.00 68 1021.9
20260508190044 54 90 6.0 13.0 0.00 0.00 0.00 68 1021.8
20260508185023 54 90 5.0 10.0 0.00 0.00 0.00 68 1021.7
20260508184024 54 90 5.0 10.0 0.00 0.00 0.00 67 1021.7
20260508183024 55 90 7.0 12.0 0.00 0.00 0.00 67 1021.5
20260508182023 55 90 7.0 12.0 0.00 0.00 0.00 67 1021.5
20260508181024 55 90 6.0 12.0 0.00 0.00 0.00 66 1021.4
20260508180023 56 90 7.0 13.0 0.00 0.00 0.00 66 1021.4
20260508175024 56 90 6.0 11.0 0.00 0.00 0.00 66 1021.2
20260508174023 56 68 6.0 11.0 0.00 0.00 0.00 64 1021.2
20260508173024 57 90 4.0 10.0 0.00 0.00 0.00 61 1021.1
20260508172023 57 90 5.0 9.0 0.00 0.00 0.00 58 1021.0
20260508171024 57 90 6.0 10.0 0.00 0.00 0.00 57 1020.9
20260508170024 57 90 5.0 10.0 0.00 0.00 0.00 58 1020.8
20260508165045 57 90 7.0 13.0 0.00 0.00 0.00 58 1020.8
20260508164025 58 90 6.0 12.0 0.00 0.00 0.00 55 1020.8
20260508163045 58 90 6.0 10.0 0.00 0.00 0.00 53 1020.7
20260508162105 58 0.0 2.0 0.00 0.00 0.00 52 1020.6
20260508161106 58 90 4.0 8.0 0.00 0.00 0.00 52 1020.7
20260508160025 59 90 3.0 8.0 0.00 0.00 0.00 51 1020.7
20260508155025 58 90 4.0 8.0 0.00 0.00 0.00 51 1020.7
20260508154043 58 90 5.0 10.0 0.00 0.00 0.00 51 1020.6
20260508153026 59 90 4.0 10.0 0.00 0.00 0.00 51 1020.7
20260508152025 60 90 6.0 13.0 0.00 0.00 0.00 50 1020.7
20260508151026 59 135 1.0 7.0 0.00 0.00 0.00 53 1020.8